Погода в Панском

Россия / Тамбовская область     52°53′48″N   40°34′38″E
темп.,
°C
ветер,
м/с
пор.,
м/с
влажн.,
%
обл.,
%
осадки,
мм/ч
давл.,
гПа
погр.,
м
10 апреля, сб
сб1000:00+3ссв226295 0.0 102712
03:00+2св33695 0.0 102725
06:00+1св23744 0.0 102835
09:00+6ссв345634 0.0 1028374
12:00+9ссв44380 0.0 10261195
15:00+10ссв44353 0.0 10261447
18:00+9ссв35411 0.0 1025285
21:00+6с34560 0.0 102650
11 апреля, вс
вс1100:00+4с33670 0.0 102737
03:00+3с3672100 0.0 102898
06:00+2с357399 0.0 102989
09:00+6ссв4860100 0.0 1030365
12:00+10ссв5740100 0.0 1029857
15:00+12св6835100 0.0 1029976
18:00+10ссв51047100 0.0 1029451
21:00+8св51157100 0.0 1029359
12 апреля, пн
пн1200:00+7св5117297 0.0 1029403
03:00+6св51088100 0.0 1029307
06:00+5св41096100 0.0 1028260
09:00+9всв5882100 0.0 1028334
12:00+15в5860100 0.0 1027555
15:00+20вюв6838100 0.0 10251190
18:00+18вюв4848100 0.0 1025171
21:00+13юв4136140 0.0 1026236
13 апреля, вт
вт1300:00+11юв4136643 0.0 1026251
03:00+9вюв410735 0.0 1026173
06:00+8вюв4106986 0.0 1026174
09:00+13юв585183 0.0 1026349
12:00+17ююв6839100 0.0 1025848
15:00+19ююв5733100 0.0 10241272
18:00+18юв594115 0.0 1023323
21:00+14юв411585 0.0 1025210
14 апреля, ср
ср1400:00+13юв5135976 0.0 1025291
03:00+10юв396623 0.0 1024167
06:00+9вюв4106778 0.0 1024177
09:00+14вюв61049100 0.0 1023371
12:00+18юв6935100 0.0 1022928
15:00+20юв7928100 0.0 10201961
18:00+18ююв4839100 0.0 1019221
21:00+14юв375231 0.0 1019141